Flag Weather past 2 weeks in Thompson, Manitoba, Canada

Now
-9 °F

Light snow. Partly sunny.


Feels Like: -23 °F
Forecast: -17 / -3 °F
Wind: 6 mph from Southwest

Location: Thompson

Current Time: Nov 27, 2014 at 10:16:08 AM

Latest Report: Nov 27, 2014 at 9:00 AM


Visibility: 15 mi

Pressure: 30.25 "Hg

Humidity: 77%

Dew point: -15 °F

Location of ThompsonLocation

Historic Weather in Thompson — Graph

°F

Thompson temperature yesterday

Maximum temperature yesterday: -9 °F (at 2:00 PM)
Minimum temperature yesterday: -27 °F (at 8:00 AM)
Average temperature yesterday: -19 °F

Past Weeks' High & Low Weather Summary

 TemperatureHumidityPressure
High16 °F (Nov 18, 5:00 PM)92% (Nov 13, 7:00 PM)30.69 "Hg (Nov 13, 7:00 PM)
Low-27 °F (Nov 25, 9:00 AM)55% (Nov 14, 1:00 PM)29.42 "Hg (Nov 21, 1:00 PM)
Average-3 °F75%30.03 "Hg
* Reported Nov 12 9:00 AM — Nov 27 9:00 AM, Thompson, Weather by CustomWeather, © 2014

Note: Actual official high and low records may vary slightly from our data, if they occured in-between our weather recording intervals... More about our weather records

Advertising

Thompson weather history for previous 24 hours

 ConditionsComfort  
Time TempWeatherWind HumidityBarometerVisibility
9:00 AM
Nov 27
-9 °FLight snow. Partly sunny.6 mph77%30.25 "Hg15 mi
8:00 AM-11 °FLight snow. Overcast.7 mph76%30.26 "Hg10 mi
7:00 AM-13 °FLight snow. Overcast.7 mph76%30.27 "Hg15 mi
6:00 AM-17 °FMostly cloudy.5 mph76%30.29 "Hg15 mi
5:00 AM-17 °FPassing clouds.6 mph76%30.31 "Hg15 mi
4:00 AM-17 °FPassing clouds.8 mph76%30.32 "Hg15 mi
3:00 AM-17 °FPassing clouds.6 mph76%30.35 "Hg15 mi
2:00 AM-17 °FPassing clouds.6 mph76%30.37 "Hg15 mi
1:00 AM-18 °FClear.7 mph75%30.39 "Hg15 mi
12:00 AM-18 °FClear.3 mph75%30.42 "Hg15 mi
11:00 PM
Nov 26
-17 °FClear.3 mph69%30.43 "Hg15 mi
10:00 PM-18 °FClear.3 mph75%30.45 "Hg15 mi
9:00 PM-17 °FClear.5 mph76%30.47 "Hg15 mi
8:00 PM-17 °FClear.6 mph76%30.48 "Hg15 mi
7:00 PM-17 °FClear.6 mph76%30.50 "Hg15 mi
6:00 PM-15 °FPassing clouds.3 mph76%30.51 "Hg15 mi
5:00 PM-15 °FPassing clouds.5 mph76%30.52 "Hg15 mi
4:00 PM-11 °FSunny.5 mph76%30.51 "Hg15 mi
3:00 PM-9 °FSunny.7 mph70%30.50 "Hg15 mi
2:00 PM-9 °FPassing clouds.5 mph64%30.50 "Hg15 mi
1:00 PM-11 °FPassing clouds.6 mph63%30.50 "Hg15 mi
12:00 PM-15 °FPassing clouds.5 mph69%30.50 "Hg15 mi
11:00 AM-18 °FPassing clouds.8 mph69%30.51 "Hg15 mi
10:00 AM-22 °FPassing clouds.6 mph68%30.50 "Hg15 mi
Weather by CustomWeather, © 2014

See weather overviewHow to use our weather pages